This is the latest recevied weather packets stored in our database for station/object KMKC. If no packets are shown the sender has not sent any weather packets the latest 1 day(s).
| Time | Temp. | Humidity | Pressure | Rain* | Wind** | Luminosity | Snow |
|---|---|---|---|---|---|---|---|
| 1778065414 | 7.78° C | 81% | 1016.6 hPa | - | - | - | - |
| 1778064217 | 7.78° C | 87% | 1015.9 hPa | - | - | - | - |
| 1778063017 | 7.78° C | 87% | 1015.9 hPa | - | - | - | - |
| 1778061816 | 7.78° C | 87% | 1015.9 hPa | - | - | - | - |
| 1778060740 | 8.89° C | 76% | 1015.6 hPa | - | - | - | - |
| 1778059415 | 8.89° C | 76% | 1015.6 hPa | - | - | - | - |
| 1778058815 | 8.89° C | 76% | 1015.6 hPa | - | - | - | - |
| 1778058218 | 8.89° C | 76% | 1015.6 hPa | - | - | - | - |
| 1778057020 | 8.89° C | 70% | 1014.9 hPa | - | - | - | - |
| 1778055814 | 8.89° C | 70% | 1014.9 hPa | - | - | - | - |
| 1778055213 | 8.89° C | 70% | 1014.9 hPa | - | - | - | - |
| 1778054012 | 8.89° C | 70% | 1014.9 hPa | - | - | - | - |
| 1778053416 | 8.89° C | 70% | 1014.9 hPa | - | - | - | - |
| 1778052814 | 8.89° C | 70% | 1014.9 hPa | - | - | - | - |
| 1778052215 | 8.89° C | 70% | 1014.9 hPa | - | - | - | - |
| 1778051016 | 8.89° C | 70% | 1014.9 hPa | - | - | - | - |
| 1778049220 | 8.89° C | 70% | 1015.6 hPa | - | - | - | - |
| 1778048013 | 8.89° C | 70% | 1015.6 hPa | - | - | - | - |
| 1778047418 | 8.89° C | 70% | 1015.6 hPa | - | - | - | - |
| 1778046815 | 10° C | 61% | 1015.2 hPa | - | - | - | - |
| 1778045612 | 10° C | 61% | 1015.2 hPa | - | - | - | - |
| 1778043816 | 10° C | 61% | 1015.2 hPa | - | - | - | - |
| 1778043213 | 10.56° C | 62% | 1014.2 hPa | - | - | - | - |
| 1778042615 | 10.56° C | 62% | 1014.2 hPa | - | - | - | - |
| 1778042015 | 10.56° C | 62% | 1014.2 hPa | - | - | - | - |
* Rain since midnight (hover to see other rain measurements)
** Current wind speed in m/s (hover to see current wind gust speed)